Search for airport 
image banner adimage banner adimage banner ad
image banner ad

56PN - Atlantic Refining&Marketing Corp

Located in Philadelphia, United States

ICAO - 56PN, IATA -

Data provided by Airmate  

General information

Coordinates: N39°55'11" W75°11'48"
Elevation is 30 feet MSL.
Magnetic variation is -11° East
View others Airports in Pennsylvania

Operational data

Special qualification required
Current time UTC:
Current local time:
Weather at : KPHL - Philadelphia Intl ( 7 km )
METAR: KPHL 091654Z 20011G18KT 10SM FEW030 SCT060 OVC075 13/04 A3008 RMK AO2 SLP184 T01280044
TAF: KPHL 091504Z 0915/1018 23006KT P6SM BKN120 FM092200 15006KT P6SM VCSH OVC025 FM100400 12005KT P6SM VCSH BKN025 WS020/21040KT FM100700 24005KT P6SM BKN035 WS020/23055KT FM101300 31010KT P6SM SCT030
View NOTAMs / SUP AIP / TFR affecting this airport [VIEW]
Communications frequencies: [VIEW]

Runways:

Airport contact information

Address: Philadelphia United States

Satellite view of 56PN